TimeEDT,TemperatureF,Dew PointF,Humidity,Sea Level PressureIn,VisibilityMPH,Wind Direction,Wind SpeedMPH,Gust SpeedMPH,PrecipitationIn,Events,Conditions,WindDirDegrees,DateUTC
12:54 AM,55.9,39.0,53,30.08,10.0,NW,4.6,-,N/A,,Clear,320,2012-10-11 04:54:00
1:54 AM,54.0,39.0,57,30.10,10.0,NW,3.5,-,N/A,,Clear,310,2012-10-11 05:54:00
2:54 AM,52.0,39.9,63,30.11,10.0,NW,4.6,-,N/A,,Clear,320,2012-10-11 06:54:00
3:54 AM,48.0,39.9,74,30.13,10.0,Calm,Calm,-,N/A,,Clear,0,2012-10-11 07:54:00
4:54 AM,46.0,39.9,79,30.16,10.0,Calm,Calm,-,N/A,,Clear,0,2012-10-11 08:54:00
5:54 AM,48.0,37.9,68,30.18,10.0,Calm,Calm,-,N/A,,Clear,0,2012-10-11 09:54:00
6:54 AM,46.9,37.9,71,30.20,10.0,NW,3.5,-,N/A,,Clear,320,2012-10-11 10:54:00
7:54 AM,48.0,37.0,66,30.23,10.0,Variable,4.6,-,N/A,,Clear,0,2012-10-11 11:54:00
8:54 AM,51.1,37.0,59,30.26,10.0,Variable,4.6,-,N/A,,Clear,0,2012-10-11 12:54:00
9:54 AM,54.0,35.1,49,30.27,10.0,North,5.8,-,N/A,,Clear,350,2012-10-11 13:54:00
10:54 AM,55.9,33.1,42,30.28,10.0,NNW,8.1,-,N/A,,Clear,330,2012-10-11 14:54:00
11:54 AM,55.9,34.0,44,30.27,10.0,WSW,4.6,-,N/A,,Clear,250,2012-10-11 15:54:00
12:54 PM,60.1,35.1,39,30.25,10.0,Variable,3.5,-,N/A,,Clear,0,2012-10-11 16:54:00
1:54 PM,61.0,34.0,36,30.23,10.0,Variable,5.8,-,N/A,,Clear,0,2012-10-11 17:54:00
2:54 PM,61.0,33.1,35,30.23,10.0,WSW,5.8,-,N/A,,Clear,240,2012-10-11 18:54:00
3:54 PM,62.1,32.0,32,30.22,10.0,WSW,4.6,-,N/A,,Clear,240,2012-10-11 19:54:00
4:54 PM,61.0,34.0,36,30.21,10.0,WSW,4.6,-,N/A,,Clear,250,2012-10-11 20:54:00
5:54 PM,60.1,35.1,39,30.22,10.0,WSW,4.6,-,N/A,,Clear,250,2012-10-11 21:54:00
6:54 PM,55.9,37.9,51,30.23,10.0,WSW,4.6,-,N/A,,Clear,250,2012-10-11 22:54:00
7:54 PM,51.1,39.0,63,30.23,10.0,Calm,Calm,-,N/A,,Clear,0,2012-10-11 23:54:00
9:54 PM,46.9,39.0,74,30.24,10.0,Calm,Calm,-,N/A,,Clear,0,2012-10-12 01:54:00
10:54 PM,45.0,39.9,82,30.23,10.0,Calm,Calm,-,N/A,,Clear,0,2012-10-12 02:54:00
11:54 PM,44.1,39.0,82,30.22,10.0,Calm,Calm,-,N/A,,Clear,0,2012-10-12 03:54:00